sat.trackr.live / text

‹ back to catalog

STARLINK-36239

NORAD 67196 · 2025-304E

PAYLOAD ACTIVE UNKNOWN

§ Identity

Operator
Country
US
Launch date
2025-12-17
Launch site
AFWTR
Launch vehicle
Mass (kg)
RCS (m²)

Purposes: comms

External: N2YO · Heavens-Above · Gunter

§ Orbital elements

Epoch: 2026-05-24T22:51:33.643008Z

Period
96.11 min
Inclination
70.0019°
Eccentricity
0.0002821
Mean motion
14.98330963 rev/d
Perigee alt
570.1 km
Apogee alt
574.0 km
Semi-major
6,950.2 km
B*
3.5811e-4
RAAN
342.3554°
Arg perigee
265.4492°
Mean anomaly
94.6345°
Rev number
2,530

§ Raw data

STARLINK-362391 67196U 25304E   26144.95247272  .00004183  00000+0  35811-3 0  99942 67196  70.0019 342.3554 0002821 265.4492  94.6345 14.98330963 25306

JSON: /api/v1/satellites/67196 · /tle

For live sub-satellite position, see the globe view (requires WebGL).

§ Visibility from observer

Set your observer location to see the next 7 days of passes ≥ 10°. The values pass through the URL so the page stays shareable.

No JS? Fill the form by hand. The geolocation button needs JavaScript.